Location: New Plymouth
(39.0670°S, 174.0830°E)
Time: 02:29:28
(UTC+13:00)

H-2A R/B - Pass Details

Date: 24 January 2019
Orbit: 262 x 32958 km, 27.9° (Epoch: 15 February)

Event Time Altitude Azimuth Distance (km) Brightness Sun altitude
Rises 22:05:23 0° 318° (NW) 2,334 4.6 -13.8°
Reaches altitude 10° 22:06:56 10° 336° (NNW) 1,843 3.8 -14.0°
Maximum altitude 22:10:12 25° 35° (NE) 1,932 3.5 -14.5°
Drops below altitude 10° 22:20:21 10° 83° (E) 6,118 6.1 -16.0°
Sets 22:33:47 0° 91° (E) 11,264 7.5 -17.8°
